Find Starlink 35847

NORAD ID: 66621 Int'l Des: 2025-271 Owner: SPXS Country: US Constellation: starlink operational
LEOCIRCULAR

当前视图

正在加载3D地球...

关于 Starlink 35847

正在加载描述...

即将过境

Passes for default location (London). Set your location on the main map for personalized predictions.

高度历史

Loading altitude history...

两行轨道根数

1 66621U 25271E 26150.07051444 .00028871 00000-0 98331-3 0 9990
2 66621 53.1583 122.1169 0001291 83.6149 276.4998 15.30193381 30028
Epoch: May 30, 2026 • Age: 7 hours

当前状态

高度 479.9 km
速度 7.63 km/s
星下点 48.72°N, 167.08°E
发射日期 Nov 23, 2025
运行时间 0.5 years
类型 internet

技术详情

分类 Payload
质量 575.00 kg
干质量 530.00 kg
总质量 575.00 kg
长度 0.30 m
直径 4.10 m
跨度 29.00 m
形状 Box + pan
制造商 SPXS
平台类型 Starlink V2MO
阶段状态 In Orbit
所有者/国家 SPXS/US

Most Searched